Year,Month,Day,Hour,Minute,Value (Times are PST for temperature in C)
2017,07,15,00,00,12.30
2017,07,15,00,01,12.30
2017,07,15,00,02,12.30
2017,07,15,00,03,12.30
2017,07,15,00,04,12.30
2017,07,15,00,05,12.30
2017,07,15,00,06,12.30
2017,07,15,00,07,12.30
2017,07,15,00,08,12.20
2017,07,15,00,09,12.20
2017,07,15,00,10,12.20
2017,07,15,00,11,12.20
2017,07,15,00,12,12.20
2017,07,15,00,13,12.20
2017,07,15,00,14,12.20
2017,07,15,00,15,12.20
2017,07,15,00,16,12.20
2017,07,15,00,17,12.20
2017,07,15,00,18,12.20
2017,07,15,00,19,12.20
2017,07,15,00,20,12.20
2017,07,15,00,21,12.20
2017,07,15,00,22,12.20
2017,07,15,00,23,12.20
2017,07,15,00,24,12.20
2017,07,15,00,25,12.20
2017,07,15,00,26,12.20
2017,07,15,00,27,12.20
2017,07,15,00,28,12.20
2017,07,15,00,29,12.20
2017,07,15,00,30,12.20
2017,07,15,00,31,12.20
2017,07,15,00,32,12.10
2017,07,15,00,33,12.10
2017,07,15,00,34,12.10
2017,07,15,00,35,12.10
2017,07,15,00,36,12.10
2017,07,15,00,37,12.10
2017,07,15,00,38,12.10
2017,07,15,00,39,12.10
2017,07,15,00,40,12.00
2017,07,15,00,41,12.00
2017,07,15,00,42,12.00
2017,07,15,00,43,11.90
2017,07,15,00,44,11.90
2017,07,15,00,45,11.90
2017,07,15,00,46,11.90
2017,07,15,00,47,11.90
2017,07,15,00,48,11.90
2017,07,15,00,49,11.80
2017,07,15,00,50,11.80
2017,07,15,00,51,11.80
2017,07,15,00,52,11.90
2017,07,15,00,53,11.90
2017,07,15,00,54,11.90
2017,07,15,00,55,11.90
2017,07,15,00,56,11.90
2017,07,15,00,57,11.90
2017,07,15,00,58,11.90
2017,07,15,00,59,11.80
2017,07,15,01,00,11.80
2017,07,15,01,01,11.80
2017,07,15,01,02,11.80
2017,07,15,01,03,11.80
2017,07,15,01,04,11.70
2017,07,15,01,05,11.70
2017,07,15,01,06,11.70
2017,07,15,01,07,11.70
2017,07,15,01,08,11.70
2017,07,15,01,09,11.70
2017,07,15,01,10,11.60
2017,07,15,01,11,11.60
2017,07,15,01,12,11.60
2017,07,15,01,13,11.60
2017,07,15,01,14,11.50
2017,07,15,01,15,11.50
2017,07,15,01,16,11.40
2017,07,15,01,17,11.40
2017,07,15,01,18,11.40
2017,07,15,01,19,11.30
2017,07,15,01,20,11.30
2017,07,15,01,21,11.30
2017,07,15,01,22,11.30
2017,07,15,01,23,11.30
2017,07,15,01,24,11.30
2017,07,15,01,25,11.20
2017,07,15,01,26,11.20
2017,07,15,01,27,11.20
2017,07,15,01,28,11.20
2017,07,15,01,29,11.20
2017,07,15,01,30,11.20
2017,07,15,01,31,11.20
2017,07,15,01,32,11.20
2017,07,15,01,33,11.20
2017,07,15,01,34,11.20
2017,07,15,01,35,11.20
2017,07,15,01,36,11.20
2017,07,15,01,37,11.30
2017,07,15,01,38,11.30
2017,07,15,01,39,11.30
2017,07,15,01,40,11.30
2017,07,15,01,41,11.30
2017,07,15,01,42,11.30
2017,07,15,01,43,11.30
2017,07,15,01,44,11.30
2017,07,15,01,45,11.30
2017,07,15,01,46,11.30
2017,07,15,01,47,11.30
2017,07,15,01,48,11.30
2017,07,15,01,49,11.30
2017,07,15,01,50,11.30
2017,07,15,01,51,11.40
2017,07,15,01,52,11.40
2017,07,15,01,53,11.40
2017,07,15,01,54,11.40
2017,07,15,01,55,11.40
2017,07,15,01,56,11.40
2017,07,15,01,57,11.40
2017,07,15,01,58,11.40
2017,07,15,01,59,11.40
2017,07,15,02,00,11.40
2017,07,15,02,01,11.40
2017,07,15,02,02,11.50
2017,07,15,02,03,11.50
2017,07,15,02,04,11.50
2017,07,15,02,05,11.50
2017,07,15,02,06,11.50
2017,07,15,02,07,11.60
2017,07,15,02,08,11.60
2017,07,15,02,09,11.60
2017,07,15,02,10,11.60
2017,07,15,02,11,11.60
2017,07,15,02,12,11.60
2017,07,15,02,13,11.60
2017,07,15,02,14,11.60
2017,07,15,02,15,11.60
2017,07,15,02,16,11.60
2017,07,15,02,17,11.60
2017,07,15,02,18,11.60
2017,07,15,02,19,11.60
2017,07,15,02,20,11.60
2017,07,15,02,21,11.60
2017,07,15,02,22,11.50
2017,07,15,02,23,11.50
2017,07,15,02,24,11.50
2017,07,15,02,25,11.50
2017,07,15,02,26,11.50
2017,07,15,02,27,11.50
2017,07,15,02,28,11.50
2017,07,15,02,29,11.60
2017,07,15,02,30,11.60
2017,07,15,02,31,11.60
2017,07,15,02,32,11.60
2017,07,15,02,33,11.60
2017,07,15,02,34,11.60
2017,07,15,02,35,11.60
2017,07,15,02,36,11.60
2017,07,15,02,37,11.60
2017,07,15,02,38,11.60
2017,07,15,02,39,11.60
2017,07,15,02,40,11.60
2017,07,15,02,41,11.60
2017,07,15,02,42,11.60
2017,07,15,02,43,11.60
2017,07,15,02,44,11.60
2017,07,15,02,45,11.60
2017,07,15,02,46,11.60
2017,07,15,02,47,11.60
2017,07,15,02,48,11.60
2017,07,15,02,49,11.60
2017,07,15,02,50,11.60
2017,07,15,02,51,11.70
2017,07,15,02,52,11.70
2017,07,15,02,53,11.70
2017,07,15,02,54,11.70
2017,07,15,02,55,11.70
2017,07,15,02,56,11.70
2017,07,15,02,57,11.70
2017,07,15,02,58,11.70
2017,07,15,02,59,11.70
2017,07,15,03,00,11.70
2017,07,15,03,01,11.70
2017,07,15,03,02,11.70
2017,07,15,03,03,11.70
2017,07,15,03,04,11.70
2017,07,15,03,05,11.70
2017,07,15,03,06,11.70
2017,07,15,03,07,11.70
2017,07,15,03,08,11.70
2017,07,15,03,09,11.70
2017,07,15,03,10,11.70
2017,07,15,03,11,11.70
2017,07,15,03,12,11.70
2017,07,15,03,13,11.80
2017,07,15,03,14,11.80
2017,07,15,03,15,11.80
2017,07,15,03,16,11.80
2017,07,15,03,17,11.80
2017,07,15,03,18,11.80
2017,07,15,03,19,11.80
2017,07,15,03,20,11.90
2017,07,15,03,21,11.90
2017,07,15,03,22,11.90
2017,07,15,03,23,11.90
2017,07,15,03,24,11.90
2017,07,15,03,25,11.90
2017,07,15,03,26,12.00
2017,07,15,03,27,12.00
2017,07,15,03,28,12.00
2017,07,15,03,29,12.00
2017,07,15,03,30,12.00
2017,07,15,03,31,12.00
2017,07,15,03,32,12.00
2017,07,15,03,33,12.00
2017,07,15,03,34,12.00
2017,07,15,03,35,12.00
2017,07,15,03,36,12.00
2017,07,15,03,37,12.00
2017,07,15,03,38,12.00
2017,07,15,03,39,12.10
2017,07,15,03,40,12.10
2017,07,15,03,41,12.10
2017,07,15,03,42,12.10
2017,07,15,03,43,12.10
2017,07,15,03,44,12.10
2017,07,15,03,45,12.10
2017,07,15,03,46,12.10
2017,07,15,03,47,12.10
2017,07,15,03,48,12.10
2017,07,15,03,49,12.10
2017,07,15,03,50,12.10
2017,07,15,03,51,12.10
2017,07,15,03,52,12.10
2017,07,15,03,53,12.10
2017,07,15,03,54,12.10
2017,07,15,03,55,12.10
2017,07,15,03,56,12.10
2017,07,15,03,57,12.10
2017,07,15,03,58,12.10
2017,07,15,03,59,12.10
2017,07,15,04,00,12.10
2017,07,15,04,01,12.10
2017,07,15,04,02,12.10
2017,07,15,04,03,12.10
2017,07,15,04,04,12.10
2017,07,15,04,05,12.10
2017,07,15,04,06,12.10
2017,07,15,04,07,12.10
2017,07,15,04,08,12.10
2017,07,15,04,09,12.10
2017,07,15,04,10,12.10
2017,07,15,04,11,12.10
2017,07,15,04,12,12.10
2017,07,15,04,13,12.10
2017,07,15,04,14,12.10
2017,07,15,04,15,12.10
2017,07,15,04,16,12.20
2017,07,15,04,17,12.20
2017,07,15,04,18,12.20
2017,07,15,04,19,12.20
2017,07,15,04,20,12.20
2017,07,15,04,21,12.20
2017,07,15,04,22,12.20
2017,07,15,04,23,12.20
2017,07,15,04,24,12.20
2017,07,15,04,25,12.20
2017,07,15,04,26,12.20
2017,07,15,04,27,12.20
2017,07,15,04,28,12.20
2017,07,15,04,29,12.20
2017,07,15,04,30,12.20
2017,07,15,04,31,12.20
2017,07,15,04,32,12.20
2017,07,15,04,33,12.10
2017,07,15,04,34,12.10
2017,07,15,04,35,12.10
2017,07,15,04,36,12.10
2017,07,15,04,37,12.10
2017,07,15,04,38,12.10
2017,07,15,04,39,12.10
2017,07,15,04,40,12.10
2017,07,15,04,41,12.10
2017,07,15,04,42,12.10
2017,07,15,04,43,12.10
2017,07,15,04,44,12.10
2017,07,15,04,45,12.10
2017,07,15,04,46,12.10
2017,07,15,04,47,12.10
2017,07,15,04,48,12.10
2017,07,15,04,49,12.10
2017,07,15,04,50,12.10
2017,07,15,04,51,12.10
2017,07,15,04,52,12.10
2017,07,15,04,53,12.10
2017,07,15,04,54,12.10
2017,07,15,04,55,12.10
2017,07,15,04,56,12.10
2017,07,15,04,57,12.10
2017,07,15,04,58,12.10
2017,07,15,04,59,12.10
2017,07,15,05,00,12.10
2017,07,15,05,01,12.10
2017,07,15,05,02,12.10
2017,07,15,05,03,12.10
2017,07,15,05,04,12.10
2017,07,15,05,05,12.20
2017,07,15,05,06,12.20
2017,07,15,05,07,12.20
2017,07,15,05,08,12.20
2017,07,15,05,09,12.20
2017,07,15,05,10,12.20
2017,07,15,05,11,12.20
2017,07,15,05,12,12.20
2017,07,15,05,13,12.20
2017,07,15,05,14,12.20
2017,07,15,05,15,12.20
2017,07,15,05,16,12.20
2017,07,15,05,17,12.20
2017,07,15,05,18,12.20
2017,07,15,05,19,12.20
2017,07,15,05,20,12.20
2017,07,15,05,21,12.20
2017,07,15,05,22,12.20
2017,07,15,05,23,12.20
2017,07,15,05,24,12.20
2017,07,15,05,25,12.20
2017,07,15,05,26,12.20
2017,07,15,05,27,12.20
2017,07,15,05,28,12.20
2017,07,15,05,29,12.20
2017,07,15,05,30,12.20
2017,07,15,05,31,12.20
2017,07,15,05,32,12.20
2017,07,15,05,33,12.20
2017,07,15,05,34,12.20
2017,07,15,05,35,12.20
2017,07,15,05,36,12.20
2017,07,15,05,37,12.20
2017,07,15,05,38,12.20
2017,07,15,05,39,12.20
2017,07,15,05,40,12.20
2017,07,15,05,41,12.20
2017,07,15,05,42,12.20
2017,07,15,05,43,12.20
2017,07,15,05,44,12.20
2017,07,15,05,45,12.20
2017,07,15,05,46,12.20
2017,07,15,05,47,12.20
2017,07,15,05,48,12.20
2017,07,15,05,49,12.20
2017,07,15,05,50,12.20
2017,07,15,05,51,12.20
2017,07,15,05,52,12.20
2017,07,15,05,53,12.20
2017,07,15,05,54,12.20
2017,07,15,05,55,12.20
2017,07,15,05,56,12.20
2017,07,15,05,57,12.20
2017,07,15,05,58,12.20
2017,07,15,05,59,12.20
2017,07,15,06,00,12.20
2017,07,15,06,01,12.20
2017,07,15,06,02,12.20
2017,07,15,06,03,12.20
2017,07,15,06,04,12.20
2017,07,15,06,05,12.20
2017,07,15,06,06,12.20
2017,07,15,06,07,12.20
2017,07,15,06,08,12.20
2017,07,15,06,09,12.20
2017,07,15,06,10,12.20
2017,07,15,06,11,12.20
2017,07,15,06,12,12.20
2017,07,15,06,13,12.20
2017,07,15,06,14,12.20
2017,07,15,06,15,12.20
2017,07,15,06,16,12.20
2017,07,15,06,17,12.20
2017,07,15,06,18,12.30
2017,07,15,06,19,12.30
2017,07,15,06,20,12.30
2017,07,15,06,21,12.30
2017,07,15,06,22,12.30
2017,07,15,06,23,12.30
2017,07,15,06,24,12.30
2017,07,15,06,25,12.30
2017,07,15,06,26,12.20
2017,07,15,06,27,12.20
2017,07,15,06,28,12.20
2017,07,15,06,29,12.20
2017,07,15,06,30,12.20
2017,07,15,06,31,12.20
2017,07,15,06,32,12.20
2017,07,15,06,33,12.20
2017,07,15,06,34,12.20
2017,07,15,06,35,12.20
2017,07,15,06,36,12.20
2017,07,15,06,37,12.20
2017,07,15,06,38,12.20
2017,07,15,06,39,12.30
2017,07,15,06,40,12.30
2017,07,15,06,41,12.30
2017,07,15,06,42,12.30
2017,07,15,06,43,12.30
2017,07,15,06,44,12.30
2017,07,15,06,45,12.30
2017,07,15,06,46,12.30
2017,07,15,06,47,12.30
2017,07,15,06,48,12.30
2017,07,15,06,49,12.30
2017,07,15,06,50,12.30
2017,07,15,06,51,12.20
2017,07,15,06,52,12.20
2017,07,15,06,53,12.20
2017,07,15,06,54,12.20
2017,07,15,06,55,12.20
2017,07,15,06,56,12.20
2017,07,15,06,57,12.20
2017,07,15,06,58,12.20
2017,07,15,06,59,12.20
2017,07,15,07,00,12.20
2017,07,15,07,01,12.20
2017,07,15,07,02,12.20
2017,07,15,07,03,12.20
2017,07,15,07,04,12.20
2017,07,15,07,05,12.20
2017,07,15,07,06,12.20
2017,07,15,07,07,12.20
2017,07,15,07,08,12.20
2017,07,15,07,09,12.20
2017,07,15,07,10,12.20
2017,07,15,07,11,12.20
2017,07,15,07,12,12.20
2017,07,15,07,13,12.20
2017,07,15,07,14,12.20
2017,07,15,07,15,12.30
2017,07,15,07,16,12.30
2017,07,15,07,17,12.30
2017,07,15,07,18,12.30
2017,07,15,07,19,12.30
2017,07,15,07,20,12.30
2017,07,15,07,21,12.30
2017,07,15,07,22,12.30
2017,07,15,07,23,12.30
2017,07,15,07,24,12.30
2017,07,15,07,25,12.30
2017,07,15,07,26,12.30
2017,07,15,07,27,12.30
2017,07,15,07,28,12.30
2017,07,15,07,29,12.30
2017,07,15,07,30,12.30
2017,07,15,07,31,12.30
2017,07,15,07,32,12.30
2017,07,15,07,33,12.30
2017,07,15,07,34,12.30
2017,07,15,07,35,12.40
2017,07,15,07,36,12.40
2017,07,15,07,37,12.40
2017,07,15,07,38,12.40
2017,07,15,07,39,12.40
2017,07,15,07,40,12.40
2017,07,15,07,41,12.40
2017,07,15,07,42,12.40
2017,07,15,07,43,12.40
2017,07,15,07,44,12.40
2017,07,15,07,45,12.50
2017,07,15,07,46,12.50
2017,07,15,07,47,12.50
2017,07,15,07,48,12.50
2017,07,15,07,49,12.60
2017,07,15,07,50,12.60
2017,07,15,07,51,12.60
2017,07,15,07,52,12.60
2017,07,15,07,53,12.60
2017,07,15,07,54,12.60
2017,07,15,07,55,12.70
2017,07,15,07,56,12.70
2017,07,15,07,57,12.70
2017,07,15,07,58,12.70
2017,07,15,07,59,12.70
2017,07,15,08,00,12.70
2017,07,15,08,01,12.70
2017,07,15,08,02,12.70
2017,07,15,08,03,12.70
2017,07,15,08,04,12.80
2017,07,15,08,05,12.80
2017,07,15,08,06,12.80
2017,07,15,08,07,12.80
2017,07,15,08,08,12.80
2017,07,15,08,09,12.80
2017,07,15,08,10,12.80
2017,07,15,08,11,12.80
2017,07,15,08,12,12.90
2017,07,15,08,13,12.90
2017,07,15,08,14,12.90
2017,07,15,08,15,12.90
2017,07,15,08,16,12.90
2017,07,15,08,17,12.90
2017,07,15,08,18,12.90
2017,07,15,08,19,12.90
2017,07,15,08,20,12.90
2017,07,15,08,21,12.90
2017,07,15,08,22,12.90
2017,07,15,08,23,12.90
2017,07,15,08,24,12.90
2017,07,15,08,25,12.90
2017,07,15,08,26,12.90
2017,07,15,08,27,12.80
2017,07,15,08,28,12.90
2017,07,15,08,29,12.80
2017,07,15,08,30,12.90
2017,07,15,08,31,12.90
2017,07,15,08,32,12.90
2017,07,15,08,33,12.90
2017,07,15,08,34,12.90
2017,07,15,08,35,12.90
2017,07,15,08,36,12.90
2017,07,15,08,37,12.90
2017,07,15,08,38,12.90
2017,07,15,08,39,12.90
2017,07,15,08,40,12.90
2017,07,15,08,41,12.80
2017,07,15,08,42,12.80
2017,07,15,08,43,12.80
2017,07,15,08,44,12.80
2017,07,15,08,45,12.80
2017,07,15,08,46,12.80
2017,07,15,08,47,12.80
2017,07,15,08,48,12.80
2017,07,15,08,49,12.80
2017,07,15,08,50,12.80
2017,07,15,08,51,12.80
2017,07,15,08,52,12.80
2017,07,15,08,53,12.80
2017,07,15,08,54,12.80
2017,07,15,08,55,12.80
2017,07,15,08,56,12.80
2017,07,15,08,57,12.80
2017,07,15,08,58,12.80
2017,07,15,08,59,12.80
2017,07,15,09,00,12.90
2017,07,15,09,01,12.90
2017,07,15,09,02,12.90
2017,07,15,09,03,12.90
2017,07,15,09,04,12.90
2017,07,15,09,05,12.90
2017,07,15,09,06,12.90
2017,07,15,09,07,12.90
2017,07,15,09,08,12.90
2017,07,15,09,09,13.00
2017,07,15,09,10,13.00
2017,07,15,09,11,13.00
2017,07,15,09,12,13.00
2017,07,15,09,13,13.00
2017,07,15,09,14,13.00
2017,07,15,09,15,13.00
2017,07,15,09,16,13.00
2017,07,15,09,17,13.00
2017,07,15,09,18,13.00
2017,07,15,09,19,13.00
2017,07,15,09,20,13.00
2017,07,15,09,21,13.00
2017,07,15,09,22,13.00
2017,07,15,09,23,13.00
2017,07,15,09,24,13.00
2017,07,15,09,25,13.00
2017,07,15,09,26,13.00
2017,07,15,09,27,13.00
2017,07,15,09,28,13.00
2017,07,15,09,29,12.90
2017,07,15,09,30,12.90
2017,07,15,09,31,12.90
2017,07,15,09,32,12.90
2017,07,15,09,33,12.90
2017,07,15,09,34,12.90
2017,07,15,09,35,12.90
2017,07,15,09,36,13.00
2017,07,15,09,37,13.00
2017,07,15,09,38,13.00
2017,07,15,09,39,13.10
2017,07,15,09,40,13.10
2017,07,15,09,41,13.10
2017,07,15,09,42,13.10
2017,07,15,09,43,13.20
2017,07,15,09,44,13.20
2017,07,15,09,45,13.20
2017,07,15,09,46,13.20
2017,07,15,09,47,13.20
2017,07,15,09,48,13.20
2017,07,15,09,49,13.20
2017,07,15,09,50,13.20
2017,07,15,09,51,13.20
2017,07,15,09,52,13.20
2017,07,15,09,53,13.20
2017,07,15,09,54,13.30
2017,07,15,09,55,13.30
2017,07,15,09,56,13.30
2017,07,15,09,57,13.30
2017,07,15,09,58,13.30
2017,07,15,09,59,13.40
2017,07,15,10,00,13.40
2017,07,15,10,01,13.40
2017,07,15,10,02,13.40
2017,07,15,10,03,13.40
2017,07,15,10,04,13.40
2017,07,15,10,05,13.50
2017,07,15,10,06,13.50
2017,07,15,10,07,13.60
2017,07,15,10,08,13.60
2017,07,15,10,09,13.60
2017,07,15,10,10,13.70
2017,07,15,10,11,13.70
2017,07,15,10,12,13.70
2017,07,15,10,13,13.70
2017,07,15,10,14,13.70
2017,07,15,10,15,13.70
2017,07,15,10,16,13.70
2017,07,15,10,17,13.70
2017,07,15,10,18,13.70
2017,07,15,10,19,13.70
2017,07,15,10,20,13.80
2017,07,15,10,21,13.80
2017,07,15,10,22,13.90
2017,07,15,10,23,13.90
2017,07,15,10,24,13.90
2017,07,15,10,25,14.00
2017,07,15,10,26,14.00
2017,07,15,10,27,14.10
2017,07,15,10,28,14.10
2017,07,15,10,29,14.20
2017,07,15,10,30,14.20
2017,07,15,10,31,14.20
2017,07,15,10,32,14.30
2017,07,15,10,33,14.30
2017,07,15,10,34,14.30
2017,07,15,10,35,14.30
2017,07,15,10,36,14.30
2017,07,15,10,37,14.40
2017,07,15,10,38,14.40
2017,07,15,10,39,14.40
2017,07,15,10,40,14.40
2017,07,15,10,41,14.40
2017,07,15,10,42,14.40
2017,07,15,10,43,14.50
2017,07,15,10,44,14.50
2017,07,15,10,45,14.50
2017,07,15,10,46,14.50
2017,07,15,10,47,14.50
2017,07,15,10,48,14.40
2017,07,15,10,49,14.40
2017,07,15,10,50,14.40
2017,07,15,10,51,14.40
2017,07,15,10,52,14.40
2017,07,15,10,53,14.40
2017,07,15,10,54,14.40
2017,07,15,10,55,14.40
2017,07,15,10,56,14.40
2017,07,15,10,57,14.40
2017,07,15,10,58,14.50
2017,07,15,10,59,14.50
2017,07,15,11,00,14.50
2017,07,15,11,01,14.50
2017,07,15,11,02,14.60
2017,07,15,11,03,14.60
2017,07,15,11,04,14.60
2017,07,15,11,05,14.60
2017,07,15,11,06,14.60
2017,07,15,11,07,14.60
2017,07,15,11,08,14.60
2017,07,15,11,09,14.70
2017,07,15,11,10,14.70
2017,07,15,11,11,14.70
2017,07,15,11,12,14.80
2017,07,15,11,13,14.80
2017,07,15,11,14,14.80
2017,07,15,11,15,14.80
2017,07,15,11,16,14.90
2017,07,15,11,17,14.90
2017,07,15,11,18,14.90
2017,07,15,11,19,14.90
2017,07,15,11,20,14.90
2017,07,15,11,21,15.00
2017,07,15,11,22,15.00
2017,07,15,11,23,15.00
2017,07,15,11,24,15.00
2017,07,15,11,25,15.00
2017,07,15,11,26,15.00
2017,07,15,11,27,15.00
2017,07,15,11,28,15.10
2017,07,15,11,29,15.10
2017,07,15,11,30,15.10
2017,07,15,11,31,15.10
2017,07,15,11,32,15.10
2017,07,15,11,33,15.10
2017,07,15,11,34,15.10
2017,07,15,11,35,15.10
2017,07,15,11,36,15.20
2017,07,15,11,37,15.20
2017,07,15,11,38,15.20
2017,07,15,11,39,15.20
2017,07,15,11,40,15.30
2017,07,15,11,41,15.30
2017,07,15,11,42,15.30
2017,07,15,11,43,15.30
2017,07,15,11,44,15.30
2017,07,15,11,45,15.40
2017,07,15,11,46,15.40
2017,07,15,11,47,15.40
2017,07,15,11,48,15.40
2017,07,15,11,49,15.40
2017,07,15,11,50,15.40
2017,07,15,11,51,15.50
2017,07,15,11,52,15.50
2017,07,15,11,53,15.50
2017,07,15,11,54,15.60
2017,07,15,11,55,15.60
2017,07,15,11,56,15.70
2017,07,15,11,57,15.70
2017,07,15,11,58,15.70
2017,07,15,11,59,15.70
2017,07,15,12,00,15.80
2017,07,15,12,01,15.70
2017,07,15,12,02,15.70
2017,07,15,12,03,15.70
2017,07,15,12,04,15.70
2017,07,15,12,05,15.70
2017,07,15,12,06,15.80
2017,07,15,12,07,15.80
2017,07,15,12,08,15.80
2017,07,15,12,09,15.80
2017,07,15,12,10,15.80
2017,07,15,12,11,15.70
2017,07,15,12,12,15.70
2017,07,15,12,13,15.70
2017,07,15,12,14,15.70
2017,07,15,12,15,15.60
2017,07,15,12,16,15.60
2017,07,15,12,17,15.60
2017,07,15,12,18,15.60
2017,07,15,12,19,15.50
2017,07,15,12,20,15.50
2017,07,15,12,21,15.50
2017,07,15,12,22,15.40
2017,07,15,12,23,15.40
2017,07,15,12,24,15.40
2017,07,15,12,25,15.40
2017,07,15,12,26,15.40
2017,07,15,12,27,15.40
2017,07,15,12,28,15.40
2017,07,15,12,29,15.30
2017,07,15,12,30,15.30
2017,07,15,12,31,15.20
2017,07,15,12,32,15.20
2017,07,15,12,33,15.20
2017,07,15,12,34,15.20
2017,07,15,12,35,15.20
2017,07,15,12,36,15.20
2017,07,15,12,37,15.10
2017,07,15,12,38,15.10
2017,07,15,12,39,15.20
2017,07,15,12,40,15.10
2017,07,15,12,41,15.10
2017,07,15,12,42,15.10
2017,07,15,12,43,15.00
2017,07,15,12,44,15.00
2017,07,15,12,45,15.00
2017,07,15,12,46,15.00
2017,07,15,12,47,15.00
2017,07,15,12,48,15.00
2017,07,15,12,49,15.00
2017,07,15,12,50,15.00
2017,07,15,12,51,15.10
2017,07,15,12,52,15.00
2017,07,15,12,53,15.00
2017,07,15,12,54,14.90
2017,07,15,12,55,15.00
2017,07,15,12,56,15.00
2017,07,15,12,57,14.90
2017,07,15,12,58,14.90
2017,07,15,12,59,14.90
2017,07,15,13,00,14.90
2017,07,15,13,01,14.90
2017,07,15,13,02,14.80
2017,07,15,13,03,14.80
2017,07,15,13,04,14.80
2017,07,15,13,05,14.80
2017,07,15,13,06,14.80
2017,07,15,13,07,14.80
2017,07,15,13,08,14.80
2017,07,15,13,09,14.70
2017,07,15,13,10,14.80
2017,07,15,13,11,14.80
2017,07,15,13,12,14.80
2017,07,15,13,13,14.80
2017,07,15,13,14,14.80
2017,07,15,13,15,14.90
2017,07,15,13,16,14.90
2017,07,15,13,17,14.90
2017,07,15,13,18,14.90
2017,07,15,13,19,14.90
2017,07,15,13,20,15.00
2017,07,15,13,21,15.00
2017,07,15,13,22,15.00
2017,07,15,13,23,14.90
2017,07,15,13,24,14.90
2017,07,15,13,25,14.90
2017,07,15,13,26,14.90
2017,07,15,13,27,14.80
2017,07,15,13,28,14.80
2017,07,15,13,29,14.80
2017,07,15,13,30,14.80
2017,07,15,13,31,14.80
2017,07,15,13,32,14.80
2017,07,15,13,33,14.80
2017,07,15,13,34,14.80
2017,07,15,13,35,14.70
2017,07,15,13,36,14.70
2017,07,15,13,37,14.70
2017,07,15,13,38,14.70
2017,07,15,13,39,14.70
2017,07,15,13,40,14.70
2017,07,15,13,41,14.70
2017,07,15,13,42,14.70
2017,07,15,13,43,14.80
2017,07,15,13,44,14.80
2017,07,15,13,45,14.80
2017,07,15,13,46,14.80
2017,07,15,13,47,14.80
2017,07,15,13,48,14.80
2017,07,15,13,49,14.80
2017,07,15,13,50,14.80
2017,07,15,13,51,14.80
2017,07,15,13,52,14.90
2017,07,15,13,53,14.80
2017,07,15,13,54,14.90
2017,07,15,13,55,14.90
2017,07,15,13,56,14.90
2017,07,15,13,57,14.90
2017,07,15,13,58,14.90
2017,07,15,13,59,14.90
2017,07,15,14,00,14.90
2017,07,15,14,01,14.90
2017,07,15,14,02,14.90
2017,07,15,14,03,14.80
2017,07,15,14,04,14.80
2017,07,15,14,05,14.80
2017,07,15,14,06,14.80
2017,07,15,14,07,14.80
2017,07,15,14,08,14.70
2017,07,15,14,09,14.70
2017,07,15,14,10,14.70
2017,07,15,14,11,14.70
2017,07,15,14,12,14.70
2017,07,15,14,13,14.70
2017,07,15,14,14,14.70
2017,07,15,14,15,14.70
2017,07,15,14,16,14.70
2017,07,15,14,17,14.60
2017,07,15,14,18,14.60
2017,07,15,14,19,14.60
2017,07,15,14,20,14.60
2017,07,15,14,21,14.60
2017,07,15,14,22,14.60
2017,07,15,14,23,14.60
2017,07,15,14,24,14.60
2017,07,15,14,25,14.60
2017,07,15,14,26,14.60
2017,07,15,14,27,14.60
2017,07,15,14,28,14.70
2017,07,15,14,29,14.70
2017,07,15,14,30,14.70
2017,07,15,14,31,14.70
2017,07,15,14,32,14.70
2017,07,15,14,33,14.60
2017,07,15,14,34,14.60
2017,07,15,14,35,14.60
2017,07,15,14,36,14.60
2017,07,15,14,37,14.60
2017,07,15,14,38,14.60
2017,07,15,14,39,14.60
2017,07,15,14,40,14.60
2017,07,15,14,41,14.60
2017,07,15,14,42,14.60
2017,07,15,14,43,14.60
2017,07,15,14,44,14.60
2017,07,15,14,45,14.60
2017,07,15,14,46,14.60
2017,07,15,14,47,14.70
2017,07,15,14,48,14.70
2017,07,15,14,49,14.70
2017,07,15,14,50,14.70
2017,07,15,14,51,14.70
2017,07,15,14,52,14.70
2017,07,15,14,53,14.70
2017,07,15,14,54,14.70
2017,07,15,14,55,14.70
2017,07,15,14,56,14.70
2017,07,15,14,57,14.70
2017,07,15,14,58,14.70
2017,07,15,14,59,14.60
2017,07,15,15,00,14.70
2017,07,15,15,01,14.70
2017,07,15,15,02,14.70
2017,07,15,15,03,14.70
2017,07,15,15,04,14.70
2017,07,15,15,05,14.70
2017,07,15,15,06,14.70
2017,07,15,15,07,14.70
2017,07,15,15,08,14.80
2017,07,15,15,09,14.80
2017,07,15,15,10,14.80
2017,07,15,15,11,14.80
2017,07,15,15,12,14.80
2017,07,15,15,13,14.80
2017,07,15,15,14,14.80
2017,07,15,15,15,14.80
2017,07,15,15,16,14.80
2017,07,15,15,17,14.70
2017,07,15,15,18,14.70
2017,07,15,15,19,14.70
2017,07,15,15,20,14.70
2017,07,15,15,21,14.70
2017,07,15,15,22,14.70
2017,07,15,15,23,14.70
2017,07,15,15,24,14.70
2017,07,15,15,25,14.70
2017,07,15,15,26,14.60
2017,07,15,15,27,14.60
2017,07,15,15,28,14.60
2017,07,15,15,29,14.60
2017,07,15,15,30,14.60
2017,07,15,15,31,14.50
2017,07,15,15,32,14.50
2017,07,15,15,33,14.40
2017,07,15,15,34,14.40
2017,07,15,15,35,14.40
2017,07,15,15,36,14.40
2017,07,15,15,37,14.40
2017,07,15,15,38,14.40
2017,07,15,15,39,14.40
2017,07,15,15,40,14.30
2017,07,15,15,41,14.30
2017,07,15,15,42,14.30
2017,07,15,15,43,14.30
2017,07,15,15,44,14.20
2017,07,15,15,45,14.20
2017,07,15,15,46,14.20
2017,07,15,15,47,14.10
2017,07,15,15,48,14.10
2017,07,15,15,49,14.10
2017,07,15,15,50,14.10
2017,07,15,15,51,14.00
2017,07,15,15,52,14.00
2017,07,15,15,53,14.00
2017,07,15,15,54,14.00
2017,07,15,15,55,14.00
2017,07,15,15,56,14.00
2017,07,15,15,57,14.00
2017,07,15,15,58,14.00
2017,07,15,15,59,14.00
2017,07,15,16,00,14.00
2017,07,15,16,01,14.00
2017,07,15,16,02,14.00
2017,07,15,16,03,14.00
2017,07,15,16,04,14.00
2017,07,15,16,05,14.00
2017,07,15,16,06,14.00
2017,07,15,16,07,14.10
2017,07,15,16,08,14.10
2017,07,15,16,09,14.10
2017,07,15,16,10,14.10
2017,07,15,16,11,14.10
2017,07,15,16,12,14.10
2017,07,15,16,13,14.10
2017,07,15,16,14,14.10
2017,07,15,16,15,14.10
2017,07,15,16,16,14.10
2017,07,15,16,17,14.10
2017,07,15,16,18,14.10
2017,07,15,16,19,14.10
2017,07,15,16,20,14.10
2017,07,15,16,21,14.10
2017,07,15,16,22,14.10
2017,07,15,16,23,14.10
2017,07,15,16,24,14.10
2017,07,15,16,25,14.20
2017,07,15,16,26,14.20
2017,07,15,16,27,14.20
2017,07,15,16,28,14.20
2017,07,15,16,29,14.20
2017,07,15,16,30,14.10
2017,07,15,16,31,14.10
2017,07,15,16,32,14.10
2017,07,15,16,33,14.10
2017,07,15,16,34,14.10
2017,07,15,16,35,14.10
2017,07,15,16,36,14.10
2017,07,15,16,37,14.10
2017,07,15,16,38,14.10
2017,07,15,16,39,14.10
2017,07,15,16,40,14.10
2017,07,15,16,41,14.10
2017,07,15,16,42,14.10
2017,07,15,16,43,14.10
2017,07,15,16,44,14.10
2017,07,15,16,45,14.10
2017,07,15,16,46,14.10
2017,07,15,16,47,14.00
2017,07,15,16,48,14.00
2017,07,15,16,49,14.00
2017,07,15,16,50,14.00
2017,07,15,16,51,14.00
2017,07,15,16,52,14.00
2017,07,15,16,53,14.00
2017,07,15,16,54,14.00
2017,07,15,16,55,14.00
2017,07,15,16,56,14.00
2017,07,15,16,57,14.00
2017,07,15,16,58,14.00
2017,07,15,16,59,14.00
2017,07,15,17,00,14.00
2017,07,15,17,01,14.00
2017,07,15,17,02,14.00
2017,07,15,17,03,14.00
2017,07,15,17,04,14.00
2017,07,15,17,05,14.00
2017,07,15,17,06,14.00
2017,07,15,17,07,14.00
2017,07,15,17,08,14.00
2017,07,15,17,09,14.00
2017,07,15,17,10,14.00
2017,07,15,17,11,14.00
2017,07,15,17,12,14.00
2017,07,15,17,13,14.00
2017,07,15,17,14,14.00
2017,07,15,17,15,14.00
2017,07,15,17,16,14.00
2017,07,15,17,17,14.10
2017,07,15,17,18,14.10
2017,07,15,17,19,14.10